{"data":{"norad_id":58789,"intl_designator":"2024-012C","name":"STARLINK-31166","alt_names":[],"object_type":"PAYLOAD","status":"ACTIVE","operator":null,"country":"US","launch_date":"2024-01-15","launch_site_code":"AFETR","launch_vehicle":null,"mission":null,"orbit_class":"UNKNOWN","rcs_meters":null,"size_class":null,"mass_kg":null,"dimensions":null,"purposes":["comms"],"wikipedia_slug":null,"has_3d_model":false,"image_url":null,"decayed_at":null,"tle_current":{"epoch":"2026-05-24T23:15:47.874240Z","epoch_age_seconds":81289,"freshness":"FRESH","line1":"1 58789U 24012C   26144.96930410  .00001539  00000+0  65460-4 0  9997","line2":"2 58789  43.0038  94.3162 0000865 272.6970  87.3783 15.27565755132903","mean_motion":15.27565755,"eccentricity":8.65e-5,"inclination_deg":43.0038,"raan_deg":94.3162,"arg_perigee_deg":272.697,"mean_anomaly_deg":87.3783,"bstar":6.546e-5,"rev_number":13290,"period_min":94.267627778812,"perigee_km":482.49825473877,"apogee_km":483.6852473127,"semimajor_km":6861.2287510257,"source":"CELESTRAK","updated_at":"2026-05-25T13:38:18.748749Z"}}}